SAS5118 EPWA-UUEE

Flight info

Callsign SAS5118
Flight time 1h 47m
Altitude 37000
Route BAMSO Z182 ASLUX M863 RUDKA/K0863F370 T174 OSMUS N869 LAPKI L999 AGLAN M864 DIPOP DIPOP3F
Aircraft B763/H-SDE3FGHIM3RWXY/LB1

Departure

Time 2026-05-05 16:25
Airport Warsaw Chopin Airport (EPWA)

Arrival

Time 2026-05-05 18:12
Airport Sheremetyevo International Airport (UUEE)
Time Latitude Longitude Altitude Speed Heading
2026-05-05 16:14 52.17467 20.96756 375 ft 0 kts 136°
2026-05-05 16:15 52.17467 20.96757 375 ft 0 kts 136°
2026-05-05 16:17 52.17468 20.96755 375 ft 1 kts 136°
2026-05-05 16:17 52.17478 20.96739 375 ft 3 kts 136°
2026-05-05 16:18 52.17504 20.96700 375 ft 1 kts 136°
2026-05-05 16:18 52.17512 20.96687 375 ft 2 kts 136°
2026-05-05 16:18 52.17522 20.96664 375 ft 7 kts 164°
2026-05-05 16:19 52.17477 20.96609 375 ft 4 kts 224°
2026-05-05 16:19 52.17461 20.96596 375 ft 5 kts 200°
2026-05-05 16:19 52.17451 20.96596 375 ft 0 kts 162°
2026-05-05 16:20 52.17393 20.96636 375 ft 16 kts 153°
2026-05-05 16:20 52.17165 20.96838 375 ft 19 kts 152°
2026-05-05 16:21 52.16913 20.97065 375 ft 21 kts 131°
2026-05-05 16:22 52.16574 20.97374 375 ft 18 kts 115°
2026-05-05 16:22 52.16463 20.97769 375 ft 21 kts 114°
2026-05-05 16:23 52.16331 20.98185 375 ft 18 kts 129°
2026-05-05 16:23 52.16254 20.98295 375 ft 8 kts 143°
2026-05-05 16:23 52.16244 20.98306 375 ft 0 kts 148°
2026-05-05 16:24 52.16243 20.98306 375 ft 1 kts 148°
2026-05-05 16:24 52.16197 20.98360 375 ft 12 kts 144°
2026-05-05 16:24 52.16151 20.98250 375 ft 41 kts 288°
2026-05-05 16:25 52.16382 20.97381 375 ft 125 kts 295°
2026-05-05 16:25 52.17410 20.93523 1130 ft 215 kts 292°
2026-05-05 16:25 52.17999 20.91232 2299 ft 225 kts 292°
2026-05-05 16:26 52.19693 20.86588 4189 ft 255 kts 320°
2026-05-05 16:26 52.23107 20.85433 5771 ft 263 kts
2026-05-05 16:27 52.24928 20.85538 6542 ft 266 kts 349°
2026-05-05 16:27 52.26635 20.84438 7321 ft 265 kts 324°
2026-05-05 16:27 52.28153 20.82657 8101 ft 269 kts 324°
2026-05-05 16:27 52.29928 20.81633 8872 ft 280 kts 348°
2026-05-05 16:28 52.31894 20.81968 9649 ft 292 kts 14°
2026-05-05 16:28 52.33667 20.83693 10427 ft 304 kts 39°
2026-05-05 16:28 52.34903 20.86551 11207 ft 313 kts 64°
2026-05-05 16:28 52.35154 20.87713 11474 ft 315 kts 73°
2026-05-05 16:29 52.35341 20.90733 12129 ft 319 kts 94°
2026-05-05 16:29 52.34794 20.94273 12912 ft 322 kts 112°
2026-05-05 16:29 52.34037 20.97752 13688 ft 326 kts 108°
2026-05-05 16:29 52.33501 21.01365 14461 ft 331 kts 101°
2026-05-05 16:30 52.33293 21.03425 14891 ft 333 kts 99°
2026-05-05 16:30 52.33033 21.07203 15668 ft 337 kts 95°
2026-05-05 16:30 52.32901 21.11067 16449 ft 340 kts 92°
2026-05-05 16:30 52.32851 21.14930 17222 ft 342 kts 91°
2026-05-05 16:31 52.32832 21.18837 18001 ft 343 kts 90°
2026-05-05 16:31 52.32819 21.22726 18777 ft 342 kts 90°
2026-05-05 16:31 52.32815 21.26568 19547 ft 340 kts 90°
2026-05-05 16:31 52.32837 21.30429 20327 ft 336 kts 89°
2026-05-05 16:32 52.32864 21.34213 21102 ft 330 kts 89°
2026-05-05 16:32 52.32893 21.37925 21878 ft 323 kts 89°
2026-05-05 16:32 52.32917 21.41538 22653 ft 314 kts 90°
2026-05-05 16:32 52.32921 21.45035 23429 ft 302 kts 90°
2026-05-05 16:33 52.32943 21.48399 24198 ft 287 kts 89°
2026-05-05 16:33 52.32971 21.51640 24813 ft 277 kts 89°
2026-05-05 16:33 52.32997 21.54731 25258 ft 272 kts 89°
2026-05-05 16:33 52.33022 21.57817 25610 ft 269 kts 89°
2026-05-05 16:34 52.33060 21.60880 25876 ft 268 kts 88°
2026-05-05 16:34 52.33118 21.63900 26075 ft 269 kts 88°
2026-05-05 16:34 52.33180 21.66970 26262 ft 269 kts 88°
2026-05-05 16:34 52.33240 21.70026 26441 ft 270 kts 88°
2026-05-05 16:35 52.33300 21.73094 26608 ft 271 kts 88°
2026-05-05 16:35 52.33361 21.76192 26780 ft 271 kts 88°
2026-05-05 16:35 52.33421 21.79243 26951 ft 271 kts 88°
2026-05-05 16:35 52.33481 21.82337 27100 ft 272 kts 88°
2026-05-05 16:36 52.33541 21.85446 27238 ft 273 kts 88°
2026-05-05 16:36 52.33591 21.88516 27388 ft 273 kts 89°
2026-05-05 16:36 52.33592 21.91648 27524 ft 273 kts 92°
2026-05-05 16:36 52.33513 21.94764 27586 ft 276 kts 94°
2026-05-05 16:37 52.33350 21.97896 27473 ft 277 kts 97°
2026-05-05 16:37 52.33144 22.01039 25547 ft 285 kts 97°
2026-05-05 16:37 52.32888 22.04562 22719 ft 352 kts 97°
2026-05-05 16:37 52.32574 22.08700 21810 ft 370 kts 97°
2026-05-05 16:38 52.32260 22.12809 21833 ft 360 kts 97°
2026-05-05 16:38 52.32166 22.16909 21952 ft 368 kts 85°
2026-05-05 16:38 52.32635 22.21117 22066 ft 382 kts 74°
2026-05-05 16:38 52.33405 22.25319 22179 ft 397 kts 71°
2026-05-05 16:39 52.34297 22.29693 22298 ft 411 kts 70°
2026-05-05 16:39 52.35237 22.34211 22422 ft 425 kts 70°
2026-05-05 16:39 52.36215 22.38877 22545 ft 439 kts 70°
2026-05-05 16:39 52.37198 22.43630 22669 ft 452 kts 70°
2026-05-05 16:40 52.38183 22.48614 22797 ft 465 kts 71°
2026-05-05 16:40 52.39159 22.53739 22948 ft 477 kts 72°
2026-05-05 16:40 52.40143 22.58955 23213 ft 485 kts 72°
2026-05-05 16:40 52.41141 22.64320 23610 ft 489 kts 72°
2026-05-05 16:41 52.42131 22.69652 24074 ft 492 kts 72°
2026-05-05 16:41 52.43133 22.75048 24549 ft 494 kts 72°
2026-05-05 16:41 52.44115 22.80398 24994 ft 497 kts 72°
2026-05-05 16:41 52.45095 22.85903 25418 ft 499 kts 73°
2026-05-05 16:42 52.46053 22.91375 25810 ft 502 kts 73°
2026-05-05 16:42 52.47125 22.96857 26178 ft 504 kts 67°
2026-05-05 16:42 52.48689 23.01939 26523 ft 505 kts 58°
2026-05-05 16:42 52.50646 23.06750 26851 ft 506 kts 52°
2026-05-05 16:43 52.52752 23.11374 27174 ft 509 kts 51°
2026-05-05 16:43 52.54857 23.16085 27495 ft 511 kts 52°
2026-05-05 16:43 52.56905 23.20850 27803 ft 514 kts 53°
2026-05-05 16:43 52.58911 23.25702 28095 ft 516 kts 54°
2026-05-05 16:44 52.60911 23.30690 28374 ft 518 kts 55°
2026-05-05 16:44 52.62861 23.35671 28633 ft 520 kts 56°
2026-05-05 16:44 52.64812 23.40670 28874 ft 522 kts 56°
2026-05-05 16:44 52.66781 23.45688 29103 ft 524 kts 55°
2026-05-05 16:45 52.68779 23.50762 29327 ft 526 kts 55°
2026-05-05 16:45 52.70770 23.55805 29540 ft 527 kts 55°
2026-05-05 16:45 52.72783 23.60898 29744 ft 529 kts 55°
2026-05-05 16:45 52.74790 23.65973 29938 ft 530 kts 55°
2026-05-05 16:46 52.76137 23.69376 30060 ft 531 kts 55°
2026-05-05 16:46 52.78839 23.76204 30299 ft 533 kts 55°
2026-05-05 16:46 52.80207 23.79661 30418 ft 534 kts 55°
2026-05-05 16:46 52.82240 23.84782 30583 ft 535 kts 55°
2026-05-05 16:47 52.84291 23.89941 30783 ft 535 kts 55°
2026-05-05 16:47 52.86301 23.95082 31111 ft 532 kts 56°
2026-05-05 16:47 52.88297 24.00252 31432 ft 530 kts 56°
2026-05-05 16:47 52.90269 24.05385 31674 ft 529 kts 56°
2026-05-05 16:48 52.92218 24.10585 31841 ft 530 kts 57°
2026-05-05 16:48 52.94150 24.15814 31975 ft 530 kts 57°
2026-05-05 16:48 52.96089 24.21005 32102 ft 531 kts 56°
2026-05-05 16:48 52.98065 24.26165 32226 ft 532 kts 56°
2026-05-05 16:49 53.00111 24.31367 32353 ft 532 kts 55°
2026-05-05 16:49 53.02156 24.36468 32478 ft 533 kts 54°
2026-05-05 16:49 53.04200 24.41584 32602 ft 533 kts 55°
2026-05-05 16:49 53.06251 24.46746 32728 ft 533 kts 55°
2026-05-05 16:50 53.08269 24.51847 32852 ft 533 kts 55°
2026-05-05 16:50 53.10319 24.57071 32979 ft 533 kts 56°
2026-05-05 16:50 53.12296 24.62228 33103 ft 533 kts 56°
2026-05-05 16:50 53.14301 24.67510 33229 ft 533 kts 56°
2026-05-05 16:51 53.16256 24.72691 33353 ft 533 kts 56°
2026-05-05 16:51 53.18244 24.77983 33480 ft 532 kts 56°
2026-05-05 16:51 53.20206 24.83199 33605 ft 532 kts 56°
2026-05-05 16:51 53.22174 24.88396 33730 ft 531 kts 56°
2026-05-05 16:52 53.24160 24.93618 33856 ft 531 kts 56°
2026-05-05 16:52 53.26142 24.98741 33980 ft 530 kts 55°
2026-05-05 16:52 53.28161 25.03905 34105 ft 529 kts 55°
2026-05-05 16:52 53.30157 25.09096 34221 ft 528 kts 56°
2026-05-05 16:53 53.32131 25.14252 34327 ft 528 kts 56°
2026-05-05 16:53 53.34097 25.19458 34420 ft 527 kts 57°
2026-05-05 16:53 53.36022 25.24704 34522 ft 527 kts 57°
2026-05-05 16:53 53.37921 25.29924 34636 ft 526 kts 57°
2026-05-05 16:54 53.39817 25.35135 34758 ft 525 kts 57°
2026-05-05 16:54 53.41716 25.40339 34887 ft 523 kts 57°
2026-05-05 16:54 53.43622 25.45549 35018 ft 522 kts 57°
2026-05-05 16:54 53.45511 25.50708 35143 ft 520 kts 57°
2026-05-05 16:55 53.47414 25.55889 35271 ft 519 kts 57°
2026-05-05 16:55 53.49335 25.61031 35401 ft 517 kts 56°
2026-05-05 16:55 53.51237 25.66122 35529 ft 516 kts 56°
2026-05-05 16:55 53.53124 25.71207 35657 ft 514 kts 56°
2026-05-05 16:56 53.55022 25.76286 35787 ft 512 kts 56°
2026-05-05 16:56 53.56909 25.81349 35913 ft 511 kts 57°
2026-05-05 16:56 53.58825 25.86585 36044 ft 509 kts 57°
2026-05-05 16:56 53.60682 25.91657 36170 ft 508 kts 57°
2026-05-05 16:57 53.62524 25.96634 36296 ft 506 kts 56°
2026-05-05 16:57 53.64391 26.01707 36421 ft 504 kts 57°
2026-05-05 16:57 53.66192 26.06722 36545 ft 503 kts 57°
2026-05-05 16:57 53.67972 26.11763 36668 ft 501 kts 58°
2026-05-05 16:58 53.69770 26.16859 36794 ft 500 kts 57°
2026-05-05 16:58 53.71544 26.21881 36915 ft 499 kts 58°
2026-05-05 16:58 53.75088 26.31964 36992 ft 500 kts 58°
2026-05-05 16:59 53.78672 26.42018 36998 ft 502 kts 57°
2026-05-05 16:59 53.82352 26.52091 37000 ft 504 kts 57°
2026-05-05 17:00 53.86026 26.62261 37001 ft 506 kts 57°
2026-05-05 17:00 53.89572 26.72432 37001 ft 507 kts 58°
2026-05-05 17:01 53.93059 26.82714 37002 ft 509 kts 58°
2026-05-05 17:01 53.96590 26.93134 37004 ft 510 kts 58°
2026-05-05 17:02 54.00125 27.03556 37005 ft 511 kts 58°
2026-05-05 17:02 54.03723 27.14031 37006 ft 511 kts 58°
2026-05-05 17:03 54.07302 27.24564 37006 ft 512 kts 59°
2026-05-05 17:03 54.10789 27.35170 37005 ft 513 kts 61°
2026-05-05 17:04 54.13859 27.46225 37006 ft 515 kts 65°
2026-05-05 17:04 54.16684 27.57376 37006 ft 515 kts 65°
2026-05-05 17:05 54.19567 27.68667 37005 ft 516 kts 65°
2026-05-05 17:05 54.22509 27.79856 37006 ft 516 kts 64°
2026-05-05 17:06 54.25478 27.91024 37004 ft 517 kts 64°
2026-05-05 17:06 54.28448 28.02156 37004 ft 517 kts 64°
2026-05-05 17:07 54.31451 28.13397 37006 ft 517 kts 64°
2026-05-05 17:07 54.34372 28.24666 37006 ft 518 kts 65°
2026-05-05 17:08 54.37227 28.35997 37006 ft 518 kts 65°
2026-05-05 17:08 54.40106 28.47378 37006 ft 518 kts 65°
2026-05-05 17:09 54.42958 28.58731 37007 ft 518 kts 65°
2026-05-05 17:09 54.45856 28.70030 37005 ft 518 kts 65°
2026-05-05 17:10 54.48804 28.81399 37006 ft 519 kts 64°
2026-05-05 17:10 54.51855 28.92594 37006 ft 518 kts 63°
2026-05-05 17:11 54.55074 29.03746 37006 ft 518 kts 62°
2026-05-05 17:11 54.58277 29.14830 37006 ft 519 kts 62°
2026-05-05 17:12 54.61466 29.26025 37005 ft 519 kts 63°
2026-05-05 17:12 54.64551 29.37309 37006 ft 519 kts 64°
2026-05-05 17:13 54.67647 29.48593 37006 ft 518 kts 59°
2026-05-05 17:13 54.71734 29.58777 37003 ft 515 kts 49°
2026-05-05 17:14 54.76362 29.68185 37003 ft 515 kts 48°
2026-05-05 17:14 54.80908 29.77847 37004 ft 516 kts 50°
2026-05-05 17:15 54.85279 29.87664 37005 ft 516 kts 51°
2026-05-05 17:15 54.89598 29.97624 37006 ft 517 kts 51°
2026-05-05 17:16 54.93933 30.07617 37004 ft 517 kts 51°
2026-05-05 17:16 54.98286 30.17643 37004 ft 517 kts 51°
2026-05-05 17:17 55.02654 30.27510 37006 ft 517 kts 50°
2026-05-05 17:17 55.07081 30.37446 37005 ft 517 kts 51°
2026-05-05 17:18 55.11426 30.47394 37006 ft 517 kts 51°
2026-05-05 17:18 55.15062 30.55806 37005 ft 517 kts 51°
2026-05-05 17:19 55.19401 30.65895 37006 ft 517 kts 51°
2026-05-05 17:19 55.23720 30.75968 37006 ft 518 kts 51°
2026-05-05 17:20 55.27950 30.86131 37007 ft 519 kts 57°
2026-05-05 17:20 55.30785 30.97744 37001 ft 521 kts 73°
2026-05-05 17:21 55.32649 31.10098 37000 ft 521 kts 74°
2026-05-05 17:22 55.35974 31.28253 37001 ft 521 kts 69°
2026-05-05 17:22 55.38375 31.40280 37002 ft 521 kts 70°
2026-05-05 17:23 55.40615 31.52398 37004 ft 521 kts 71°
2026-05-05 17:23 55.42799 31.64612 37005 ft 522 kts 72°
2026-05-05 17:24 55.44972 31.76838 37006 ft 522 kts 72°
2026-05-05 17:24 55.47184 31.89018 37005 ft 522 kts 71°
2026-05-05 17:25 55.49480 32.01199 37006 ft 522 kts 71°
2026-05-05 17:25 55.51719 32.13252 37649 ft 506 kts 71°
2026-05-05 17:25 55.52798 32.19103 37521 ft 509 kts 71°
2026-05-05 17:26 55.53876 32.25099 37292 ft 514 kts 72°
2026-05-05 17:26 55.54924 32.31125 37143 ft 516 kts 72°
2026-05-05 17:26 55.55964 32.37211 37052 ft 518 kts 72°
2026-05-05 17:27 55.58046 32.49389 37001 ft 517 kts 72°
2026-05-05 17:27 55.60137 32.61558 37001 ft 516 kts 72°
2026-05-05 17:28 55.62291 32.73686 37002 ft 515 kts 71°
2026-05-05 17:28 55.64465 32.85754 37003 ft 514 kts 71°
2026-05-05 17:29 55.66603 32.97878 37003 ft 513 kts 72°
2026-05-05 17:29 55.68644 33.10033 37004 ft 512 kts 73°
2026-05-05 17:30 55.70598 33.22073 37004 ft 512 kts 73°
2026-05-05 17:30 55.72659 33.34202 37005 ft 511 kts 72°
2026-05-05 17:31 55.74760 33.46316 36576 ft 522 kts 72°
2026-05-05 17:31 55.76862 33.58643 36798 ft 518 kts 73°
2026-05-05 17:31 55.77849 33.64773 36923 ft 515 kts 73°
2026-05-05 17:32 55.78810 33.70855 36978 ft 515 kts 73°
2026-05-05 17:32 55.80767 33.83154 36999 ft 516 kts 73°
2026-05-05 17:33 55.82757 33.95440 37000 ft 517 kts 73°
2026-05-05 17:33 55.84731 34.07745 37001 ft 518 kts 73°
2026-05-05 17:34 55.86758 34.20048 37002 ft 519 kts 72°
2026-05-05 17:34 55.88785 34.32465 36995 ft 520 kts 74°
2026-05-05 17:35 55.89889 34.45191 36778 ft 526 kts 88°
2026-05-05 17:35 55.89914 34.51741 36652 ft 529 kts 91°
2026-05-05 17:35 55.89831 34.58318 36525 ft 532 kts 91°
2026-05-05 17:35 55.89775 34.64951 36377 ft 536 kts 90°
2026-05-05 17:36 55.89795 34.71589 36164 ft 537 kts 89°
2026-05-05 17:36 55.89893 34.78135 35940 ft 520 kts 88°
2026-05-05 17:36 55.90046 34.84440 35716 ft 503 kts 87°
2026-05-05 17:36 55.90201 34.90596 35490 ft 489 kts 87°
2026-05-05 17:37 55.90326 34.96596 35264 ft 478 kts 88°
2026-05-05 17:37 55.90398 35.00523 35115 ft 475 kts 88°
2026-05-05 17:37 55.90507 35.08350 34635 ft 480 kts 89°
2026-05-05 17:37 55.90578 35.14337 34145 ft 476 kts 89°
2026-05-05 17:38 55.90648 35.20173 33650 ft 466 kts 89°
2026-05-05 17:38 55.90721 35.25855 33152 ft 455 kts 88°
2026-05-05 17:38 55.90805 35.31407 32652 ft 444 kts 88°
2026-05-05 17:38 55.90898 35.36868 32149 ft 434 kts 88°
2026-05-05 17:39 55.90989 35.42181 31650 ft 427 kts 88°
2026-05-05 17:39 55.91065 35.47468 31148 ft 424 kts 88°
2026-05-05 17:39 55.91131 35.52689 30649 ft 422 kts 89°
2026-05-05 17:39 55.91193 35.57967 30143 ft 420 kts 89°
2026-05-05 17:40 55.91251 35.63130 29646 ft 418 kts 89°
2026-05-05 17:40 55.91309 35.68342 29140 ft 415 kts 89°
2026-05-05 17:40 55.91362 35.73467 28640 ft 412 kts 89°
2026-05-05 17:40 55.91400 35.78536 28141 ft 409 kts 89°
2026-05-05 17:41 55.91414 35.83573 27642 ft 406 kts 89°
2026-05-05 17:41 55.91553 35.88628 27136 ft 403 kts 84°
2026-05-05 17:41 55.91896 35.93554 26635 ft 400 kts 81°
2026-05-05 17:41 55.92331 35.98443 26133 ft 397 kts 80°
2026-05-05 17:42 55.92775 36.03276 25632 ft 394 kts 80°
2026-05-05 17:42 55.93197 36.08072 25132 ft 391 kts 81°
2026-05-05 17:42 55.93584 36.12820 24634 ft 388 kts 81°
2026-05-05 17:42 55.93938 36.17619 24129 ft 385 kts 82°
2026-05-05 17:43 55.94239 36.22338 23629 ft 382 kts 83°
2026-05-05 17:43 55.94575 36.27006 23131 ft 380 kts 81°
2026-05-05 17:43 55.94961 36.31665 22628 ft 377 kts 81°
2026-05-05 17:43 55.95366 36.36234 22130 ft 374 kts 80°
2026-05-05 17:44 55.95782 36.40840 21624 ft 371 kts 80°
2026-05-05 17:44 55.96203 36.45330 21109 ft 369 kts 79°
2026-05-05 17:44 55.96738 36.49806 20597 ft 365 kts 70°
2026-05-05 17:44 55.97911 36.53752 20096 ft 356 kts 49°
2026-05-05 17:45 55.99758 36.56637 19590 ft 346 kts 26°
2026-05-05 17:45 56.01965 36.58052 19093 ft 335 kts
2026-05-05 17:45 56.04232 36.57883 18589 ft 323 kts 342°
2026-05-05 17:45 56.06224 36.56180 18084 ft 313 kts 319°
2026-05-05 17:46 56.07594 36.53320 17587 ft 304 kts 296°
2026-05-05 17:46 56.08175 36.49737 17085 ft 299 kts 273°
2026-05-05 17:46 56.08069 36.45994 16576 ft 298 kts 264°
2026-05-05 17:46 56.07644 36.42423 16079 ft 297 kts 251°
2026-05-05 17:47 56.06676 36.39163 15578 ft 297 kts 238°
2026-05-05 17:47 56.05370 36.36297 15076 ft 297 kts 230°
2026-05-05 17:47 56.03904 36.33720 14576 ft 296 kts 226°
2026-05-05 17:47 56.02347 36.31268 14068 ft 294 kts 224°
2026-05-05 17:48 56.00782 36.28925 13572 ft 296 kts 223°
2026-05-05 17:48 55.99190 36.26562 13061 ft 299 kts 223°
2026-05-05 17:48 55.97590 36.24190 12561 ft 301 kts 223°
2026-05-05 17:48 55.95963 36.21781 12057 ft 303 kts 223°
2026-05-05 17:49 55.94353 36.19365 11558 ft 305 kts 223°
2026-05-05 17:49 55.92873 36.16679 11054 ft 302 kts 236°
2026-05-05 17:49 55.92053 36.13261 10550 ft 299 kts 259°
2026-05-05 17:49 55.92130 36.09613 10205 ft 294 kts 283°
2026-05-05 17:50 55.93077 36.06457 10054 ft 287 kts 308°
2026-05-05 17:50 55.94010 36.05038 10016 ft 283 kts 323°
2026-05-05 17:50 55.96499 36.03835 9999 ft 285 kts 354°
2026-05-05 17:50 55.98498 36.04136 9997 ft 291 kts
2026-05-05 17:51 56.00430 36.05355 9997 ft 298 kts 22°
2026-05-05 17:51 56.01640 36.06613 9997 ft 301 kts 29°
2026-05-05 17:51 56.03345 36.08808 9996 ft 303 kts 34°
2026-05-05 17:51 56.04977 36.11244 9997 ft 304 kts 38°
2026-05-05 17:52 56.06536 36.13762 9997 ft 305 kts 39°
2026-05-05 17:52 56.08095 36.16371 9929 ft 306 kts 40°
2026-05-05 17:52 56.09655 36.18994 9749 ft 307 kts 40°
2026-05-05 17:52 56.11193 36.21603 9553 ft 305 kts 41°
2026-05-05 17:53 56.12713 36.24252 9352 ft 304 kts 41°
2026-05-05 17:53 56.14220 36.26899 9156 ft 301 kts 41°
2026-05-05 17:53 56.15718 36.29537 9038 ft 298 kts 41°
2026-05-05 17:53 56.17186 36.32130 9008 ft 297 kts 41°
2026-05-05 17:54 56.18657 36.34734 9002 ft 298 kts 41°
2026-05-05 17:54 56.20146 36.37373 9000 ft 300 kts 41°
2026-05-05 17:54 56.21639 36.40022 9000 ft 300 kts 41°
2026-05-05 17:54 56.23125 36.42646 8999 ft 300 kts 41°
2026-05-05 17:55 56.24625 36.45253 8998 ft 300 kts 40°
2026-05-05 17:55 56.26026 36.48064 8997 ft 303 kts 53°
2026-05-05 17:55 56.26944 36.51475 8998 ft 306 kts 69°
2026-05-05 17:55 56.27530 36.55146 8998 ft 307 kts 75°
2026-05-05 17:56 56.27998 36.58883 8997 ft 307 kts 77°
2026-05-05 17:56 56.28440 36.62653 8929 ft 309 kts 77°
2026-05-05 17:56 56.28885 36.66464 8706 ft 306 kts 77°
2026-05-05 17:56 56.29339 36.70145 8461 ft 301 kts 76°
2026-05-05 17:57 56.29844 36.73767 8211 ft 296 kts 74°
2026-05-05 17:57 56.30384 36.77330 7959 ft 291 kts 73°
2026-05-05 17:57 56.30938 36.80807 7707 ft 287 kts 72°
2026-05-05 17:57 56.31489 36.84223 7457 ft 283 kts 72°
2026-05-05 17:58 56.32300 36.87432 7209 ft 276 kts 56°
2026-05-05 17:58 56.33440 36.90134 7061 ft 269 kts 50°
2026-05-05 17:58 56.34277 36.93112 7008 ft 269 kts 70°
2026-05-05 17:58 56.34647 36.96439 7000 ft 272 kts 82°
2026-05-05 17:59 56.34825 36.99833 6999 ft 274 kts 85°
2026-05-05 17:59 56.34977 37.03265 6998 ft 275 kts 84°
2026-05-05 17:59 56.35170 37.06718 6997 ft 276 kts 83°
2026-05-05 17:59 56.35386 37.10155 6996 ft 276 kts 83°
2026-05-05 18:00 56.35617 37.13577 6996 ft 276 kts 82°
2026-05-05 18:00 56.35875 37.17032 6996 ft 276 kts 81°
2026-05-05 18:00 56.36145 37.20470 6996 ft 276 kts 81°
2026-05-05 18:00 56.36416 37.23890 6997 ft 276 kts 81°
2026-05-05 18:01 56.36690 37.27328 6997 ft 276 kts 81°
2026-05-05 18:01 56.36963 37.30739 6996 ft 276 kts 81°
2026-05-05 18:01 56.37240 37.34146 6997 ft 276 kts 81°
2026-05-05 18:01 56.37541 37.37596 6997 ft 276 kts 81°
2026-05-05 18:02 56.37556 37.41027 6997 ft 275 kts 101°
2026-05-05 18:02 56.36782 37.44118 7000 ft 271 kts 129°
2026-05-05 18:02 56.35318 37.46214 7000 ft 263 kts 159°
2026-05-05 18:02 56.33576 37.46792 6999 ft 254 kts 187°
2026-05-05 18:03 56.31951 37.45818 6999 ft 245 kts 216°
2026-05-05 18:03 56.30766 37.43712 7000 ft 240 kts 235°
2026-05-05 18:03 56.29844 37.41189 7000 ft 239 kts 241°
2026-05-05 18:03 56.29008 37.38626 6999 ft 239 kts 242°
2026-05-05 18:04 56.28159 37.36022 6998 ft 239 kts 241°
2026-05-05 18:04 56.27261 37.33534 6998 ft 240 kts 238°
2026-05-05 18:04 56.26150 37.31273 6997 ft 243 kts 224°
2026-05-05 18:04 56.24800 37.29751 7000 ft 246 kts 211°
2026-05-05 18:05 56.23190 37.28647 6878 ft 254 kts 199°
2026-05-05 18:05 56.21385 37.28495 6639 ft 263 kts 177°
2026-05-05 18:05 56.19623 37.29369 6392 ft 267 kts 161°
2026-05-05 18:05 56.17979 37.30919 6141 ft 268 kts 150°
2026-05-05 18:06 56.16471 37.32904 5888 ft 265 kts 141°
2026-05-05 18:06 56.15568 37.34391 5720 ft 263 kts 136°
2026-05-05 18:06 56.13921 37.37523 5387 ft 259 kts 132°
2026-05-05 18:06 56.12721 37.39940 5157 ft 255 kts 131°
2026-05-05 18:07 56.11573 37.42265 5035 ft 245 kts 131°
2026-05-05 18:07 56.10457 37.44525 4754 ft 240 kts 131°
2026-05-05 18:07 56.09355 37.46758 4364 ft 238 kts 131°
2026-05-05 18:07 56.08255 37.48989 3964 ft 237 kts 131°
2026-05-05 18:08 56.07170 37.51189 3565 ft 236 kts 131°
2026-05-05 18:08 56.06070 37.53416 3159 ft 235 kts 131°
2026-05-05 18:08 56.04994 37.55590 2760 ft 235 kts 131°
2026-05-05 18:08 56.03876 37.57706 2362 ft 233 kts 137°
2026-05-05 18:09 56.02499 37.59162 2119 ft 224 kts 158°
2026-05-05 18:09 56.01031 37.59605 2016 ft 209 kts 182°
2026-05-05 18:09 55.99770 37.58670 1995 ft 190 kts 218°
2026-05-05 18:09 55.99147 37.56742 2016 ft 177 kts 255°
2026-05-05 18:10 55.99015 37.54539 1873 ft 181 kts 264°
2026-05-05 18:10 55.98728 37.52389 1565 ft 173 kts 252°
2026-05-05 18:10 55.98367 37.50355 1365 ft 171 kts 255°
2026-05-05 18:10 55.98071 37.48291 1127 ft 171 kts 255°
2026-05-05 18:11 55.97780 37.46257 907 ft 170 kts 255°
2026-05-05 18:11 55.97473 37.44203 690 ft 169 kts 255°
2026-05-05 18:11 55.97164 37.42231 645 ft 158 kts 260°
2026-05-05 18:11 55.96934 37.40579 644 ft 102 kts 257°
2026-05-05 18:12 55.96818 37.39801 644 ft 67 kts 256°
2026-05-05 18:12 55.96690 37.38913 644 ft 50 kts 246°
2026-05-05 18:12 55.96597 37.38759 644 ft 13 kts 189°
2026-05-05 18:12 55.96501 37.38790 644 ft 15 kts 148°
2026-05-05 18:13 55.96483 37.38935 644 ft 12 kts 78°
2026-05-05 18:13 55.96513 37.39124 644 ft 16 kts 75°
2026-05-05 18:13 55.96539 37.39308 644 ft 18 kts 76°
2026-05-05 18:13 55.96568 37.39511 644 ft 16 kts 76°
2026-05-05 18:14 55.96596 37.39707 644 ft 17 kts 76°
2026-05-05 18:14 55.96624 37.39895 644 ft 14 kts 75°
2026-05-05 18:14 55.96650 37.40060 644 ft 16 kts 75°
2026-05-05 18:14 55.96678 37.40222 644 ft 12 kts 56°
2026-05-05 18:15 55.96737 37.40261 644 ft 10 kts 350°
2026-05-05 18:15 55.96747 37.40257 644 ft 0 kts 348°
2026-05-05 18:16 55.96778 37.40245 644 ft 0 kts 347°
2026-05-05 18:16 55.96796 37.40237 644 ft 13 kts 347°
2026-05-05 18:17 55.96885 37.40198 644 ft 12 kts 345°
2026-05-05 18:17 55.96974 37.40157 644 ft 16 kts 345°
2026-05-05 18:17 55.97074 37.40110 644 ft 16 kts 345°
2026-05-05 18:17 55.97097 37.40099 644 ft 0 kts 345°
2026-05-05 18:18 55.97198 37.40051 644 ft 19 kts 345°
2026-05-05 18:18 55.97341 37.39984 644 ft 21 kts 345°
2026-05-05 18:18 55.97474 37.39929 644 ft 18 kts 347°
2026-05-05 18:18 55.97587 37.39875 644 ft 15 kts 345°
2026-05-05 18:19 55.97610 37.39863 644 ft 0 kts 344°
2026-05-05 18:19 55.97657 37.39822 644 ft 23 kts 336°
2026-05-05 18:19 55.97677 37.39808 644 ft 0 kts 335°
2026-05-05 18:19 55.97703 37.39754 644 ft 0 kts 260°